COSMOS 2251 DEB, 34590

Orbit data source: Space-Track

COSMOS 2251 DEB, 34590 is space debris in LEO originally from a launch on Wed, 16 Jun 1993 UTC launched from the Plesetsk Missile And Space Complex (PKMTR). The debris from Iridium 33, an American commercial communications satellite, has been tracked extensively since its accidental collision with the defunct Russian satellite Cosmos 2251 in 2009. This event, occurring at high speed in low Earth orbit (LEO), generated thousands of pieces of space debris, significantly increasing the risk of further collisions. The Iridium 33 debris cloud has impacted space traffic management and orbital debris mitigation strategies, making it a subject of ongoing study in space situational awareness.

Loading next visibility...
Identifier
34590, 1993-036WC
Orbit
LEO
Country
Flag of CISCIS
Related business
Manufacturer
Unknown
Mission
Spacecraft
Bus & Motor
Unknown
Mass
Unknown
Launch date (UTC)
1993-06-16 (33 years ago)
Launch vehicle
Unknown
Launch site
Plesetsk Missile And Space Complex (PKMTR)
Object type
Payload
Rocket body
Debris
Shape & HBR
Unknown shape, 0.1 m
Radar Cross Section
Small (<0.1 m²)

Expand to show TLE details & history
Last TLE update: 7 hours ago

TLE from 7 hours ago
0 COSMOS 2251 DEB
1 34590U 93036WC  25351.91910006  .00000472  00000-0  11331-3 0  9999
2 34590  74.0440 312.7525 0067992  80.8146 311.0995 14.54831917891961
Epoch: 2025-12-17T22:03Z
TLE epoch observation values (Epoch: 2025-12-17T22:03:30.245Z)
Latitude
30.04882°
Longitude
-95.43706°
Altitude
681.878 km
Speed
7.535 km/s
True Right ascension
21h 28m 53s
True Declination
29° 53' 54"
Sunlit
Object was in daylight at epoch
Visualization orbit readout
Latitude
Unknown
Longitude
Unknown
Altitude
Unknown
Speed
Unknown
Apparent Right ascension
Unknown
Apparent Declination
Unknown
Sunlit
N/A
Visualization observer readout
Local Sidereal Time
04:06:41
Azimuth
Unknown
Elevation
Unknown
Doppler factor
Unknown
Orbital elements
Apogee altitude
755.69 km
Perigee altitude
659.336 km
Semi-major axis
7,085.65 km
Eccentricity
0.0068
Inclination
74.044°
RAAN
312.7525°
Arg. of periapsis
80.8146°
True anomaly
310.50908°
Mean anomaly
311.0995°
Eccentric anomaly
310.80462°
Mean motion
3.63893 °/min
Orbital period
98.93 mins
BSTAR
0.00011331

Documentation

Showing up to 5 results
|